Location: G�kdere
(37.0328°N, 30.9000°E)
Time: 02:21:11
(UTC+00:00)

IRS-1A Rocket - Pass Details

Date: 03 March 2021
Orbit: 852 x 930 km, 99.2° (Epoch: 22 April)

Event Time Altitude Azimuth Distance (km) Brightness Sun altitude
Exits shadow 18:03:49 75° 133° (SE) 911 4.1 -26.9°
Maximum altitude 18:04:15 82° 75° (ENE) 891 4.1 -26.9°
Drops below altitude 10° 18:09:51 10° 348° (NNW) 2,517 6.9 -28.0°
Sets 18:12:13 0° 348° (NNW) 3,449 7.7 -28.5°
